SCP
0 0 0 0 1 0 0 0 0 0 0 0 0 0 1 1 1 1 1 2 4 4 3 3 3 3 3 3 2 2 1 1 1 1 1 1 2 2 2 2 2 1 1 1 1 1 1 0 0
0 0 0 0 1 0 0 0 0 0 0 0 0 0 1 1 1 1 2 3 4 4 3 3 3 3 3 3 2 2 1 1 1 1 1 1 1 2 2 2 2 1 1 1 1 1 1 1 1
0 0 0 0 0 0 0 0 0 0 0 0 0 1 1 2 2 2 3 4 4 3 3 3 3 3 3 3 3 2 2 1 1 1 1 1 1 1 2 2 2 1 1 1 1 1 1 1 1
0 0 0 0 0 0 0 0 0 0 0 0 1 2 3 3 2 2 4 5 4 3 3 3 3 3 3 4 3 3 2 2 1 1 1 1 1 1 1 1 1 1 1 1 1 1 1 1 1
0 0 0 0 0 0 0 0 0 0 0 0 1 3 5 4 3 3 4 4 4 4 4 3 3 3 3 4 4 4 3 2 2 1 1 1 1 1 1 1 1 1 1 1 1 1 1 1 1
0 0 0 0 0 0 0 0 0 0 0 0 1 3 5 4 3 3 3 3 4 4 4 3 3 3 3 3 4 4 3 3 2 2 2 2 2 2 1 1 2 2 1 1 1 1 1 1 1
0 0 0 0 0 0 0 0 0 0 0 0 1 2 4 4 3 3 3 3 4 4 4 3 3 3 3 3 3 3 3 3 2 2 2 2 2 2 1 1 2 2 2 1 1 1 1 1 1
0 0 0 0 0 0 0 0 0 0 0 0 1 2 4 4 3 3 3 4 4 4 4 3 3 3 3 4 4 3 3 3 3 2 2 2 2 2 1 1 2 2 2 1 1 1 1 1 1
0 0 0 0 0 0 0 0 0 0 0 1 2 3 4 4 3 3 4 4 4 4 4 4 4 4 4 4 4 4 3 3 3 2 2 2 2 1 1 1 1 1 1 1 1 1 1 1 1
0 0 0 0 0 0 0 0 0 0 1 1 2 4 4 4 3 3 4 5 5 5 4 4 4 5 4 4 4 4 3 3 3 2 2 2 2 1 1 1 2 2 1 1 1 1 1 1 1
0 0 0 0 0 0 0 0 0 0 1 1 3 4 5 4 3 4 5 6 6 5 5 5 5 5 4 4 4 3 3 3 3 2 2 2 2 2 2 2 2 2 2 1 1 1 1 1 1
0 0 0 0 0 0 0 0 0 1 1 1 3 4 5 5 5 4 5 7 7 6 4 5 6 6 5 4 4 4 4 4 4 4 4 4 3 3 3 3 3 2 2 2 1 1 1 1 1
0 0 0 0 0 0 0 0 1 1 1 1 2 4 5 5 5 4 5 6 7 6 6 6 8 8 7 7 6 5 4 4 4 5 6 7 5 5 5 5 4 2 2 2 2 2 1 1 1
0 0 0 0 0 0 0 1 1 1 1 1 2 3 4 4 4 4 4 6 8 8 8 8 9 10 10 9 7 6 5 5 4 5 7 8 7 6 6 6 5 3 3 2 2 2 2 2 2
0 0 0 0 0 0 0 1 1 1 1 2 2 3 3 3 3 3 5 7 9 10 10 9 10 12 13 11 8 6 5 5 4 5 6 6 6 6 6 5 4 4 3 3 3 3 3 3 3
0 0 0 0 0 0 1 1 1 2 2 2 3 3 3 3 3 3 5 7 9 10 10 10 10 12 13 11 8 6 5 5 5 5 5 5 5 5 5 4 4 4 3 3 3 3 3 3 3
0 0 0 0 0 1 1 2 2 2 2 2 3 3 3 4 4 4 5 7 8 10 11 12 13 14 13 11 8 6 6 6 5 6 6 5 5 5 4 4 4 4 4 4 4 4 4 4 3
0 0 0 0 0 1 1 2 2 2 2 3 3 3 3 4 5 5 6 6 7 11 15 16 17 16 13 10 7 6 6 6 6 6 6 5 5 5 5 4 4 4 4 4 4 4 4 3 3
0 0 0 0 0 1 1 1 2 2 3 3 4 4 5 6 7 8 8 8 9 11 16 19 20 18 13 10 7 6 6 7 6 5 5 5 6 6 5 4 3 3 4 4 4 4 3 3 3
0 0 0 0 0 1 1 1 1 2 2 3 4 4 5 7 9 9 9 11 11 12 14 17 20 18 13 9 7 7 7 7 6 5 5 5 5 5 4 3 3 3 3 3 3 3 3 3 3
0 0 0 0 0 0 1 1 1 2 2 3 3 3 6 8 9 9 10 11 12 11 12 15 18 16 12 9 8 7 7 7 6 5 5 5 4 4 3 3 3 3 3 4 4 4 4 4 4
0 0 0 0 0 0 1 1 2 2 2 2 2 3 5 8 8 9 10 10 10 10 11 13 15 13 11 9 8 8 8 7 7 6 5 4 4 3 3 3 3 4 4 5 5 5 5 5 4
0 0 0 0 0 1 1 1 2 2 2 2 2 3 5 7 8 8 10 11 10 9 10 12 13 12 10 10 10 10 9 9 8 6 5 4 4 3 3 3 4 4 4 5 5 6 6 5 5
0 0 0 0 1 1 1 1 2 2 2 2 2 3 5 7 8 8 9 10 9 8 9 11 12 12 11 11 11 10 9 9 8 7 6 6 5 4 4 4 4 4 4 5 5 5 6 6 5
0 0 0 0 1 1 1 1 2 2 1 1 2 3 4 6 7 8 8 8 8 8 8 9 10 10 11 11 12 10 9 8 8 8 8 8 7 6 5 5 5 5 4 4 4 5 5 5 5
0 0 0 0 0 0 1 1 2 2 1 1 2 2 3 5 6 7 7 7 7 8 8 7 8 9 10 11 11 9 8 7 8 10 10 10 10 9 9 7 6 5 5 4 4 4 4 4 4
0 0 0 0 0 0 1 1 1 1 1 2 2 3 3 4 5 7 7 7 7 8 8 7 7 8 9 9 8 7 6 6 7 9 10 11 11 12 12 9 6 5 4 4 4 4 3 3 3
0 0 0 0 0 0 1 1 2 2 2 2 3 4 4 4 5 6 6 6 7 8 7 6 6 7 7 7 6 6 6 6 6 7 8 8 10 12 11 8 6 5 4 4 4 3 3 3 3
0 0 0 1 1 1 1 1 2 2 2 3 3 3 3 5 6 7 6 6 6 7 7 6 5 6 7 7 7 7 7 7 6 6 6 6 7 9 9 8 6 5 4 4 3 3 2 2 2
0 0 0 1 1 1 1 2 3 3 3 3 3 2 3 4 6 7 6 6 6 7 7 6 5 6 7 8 8 8 8 8 7 6 6 6 7 8 9 8 7 5 4 3 3 2 2 2 2
Wind_Speed
9 12 10 8 7 6 5 2 5 8 8 9 7 7 9 11 10 9 7 11 16 17 16 15 14 13 12 11 10 10 10 10 10 10 10 10 10 10 9 10 10 10 10 10 11 11 11 11 10
10 12 10 7 7 4 2 2 5 7 7 6 6 7 9 10 11 10 9 10 15 16 14 14 15 13 12 11 11 10 10 10 9 9 9 9 9 9 9 9 9 9 9 9 10 10 10 10 9
13 15 8 7 8 4 0 3 4 5 4 4 6 6 8 8 10 9 9 11 14 14 14 15 15 14 12 11 11 10 10 9 9 9 9 9 9 9 9 9 9 9 8 9 9 9 9 8 7
9 8 8 8 7 4 2 4 3 4 5 4 5 6 9 8 7 10 11 11 13 14 15 16 15 14 13 12 11 10 10 9 9 9 8 8 8 8 8 8 8 8 8 8 8 8 8 7 6
9 7 10 10 7 2 2 3 2 3 3 4 5 7 9 10 10 12 10 11 11 12 15 16 15 14 13 12 11 10 10 9 9 8 8 8 8 7 7 7 8 7 7 8 8 8 7 6 5
7 7 9 10 6 2 3 2 0 2 4 3 4 6 8 11 9 10 10 10 11 13 15 14 15 15 14 12 11 10 10 9 9 8 8 8 7 7 7 7 7 7 7 7 7 7 7 6 4
10 10 12 13 5 2 2 2 2 3 2 2 2 5 7 9 9 8 9 9 11 13 14 13 13 12 13 12 11 10 10 9 9 9 8 8 8 8 7 7 7 7 7 7 7 7 6 6 4
10 9 14 12 8 3 3 2 1 2 2 1 2 4 6 10 9 8 8 8 10 11 12 12 12 11 11 11 12 11 10 10 9 9 9 8 8 8 8 8 7 7 7 7 7 6 6 5 4
12 10 12 11 7 2 2 1 1 1 1 1 3 6 10 12 10 9 7 7 8 9 10 10 10 10 10 10 11 11 11 10 9 8 9 8 6 7 7 8 9 8 7 7 7 7 7 5 4
10 10 12 8 7 5 1 1 2 1 2 1 2 7 11 11 10 8 7 7 8 8 8 9 9 9 8 7 8 7 8 8 7 6 8 6 4 4 6 9 10 9 8 7 8 8 7 5 4
12 12 10 8 7 6 5 4 4 4 4 2 2 7 9 8 9 9 7 6 6 7 6 7 8 7 7 5 6 4 4 5 6 6 6 4 3 3 5 4 6 5 6 5 6 6 4 3 2
12 12 10 9 7 6 7 6 6 5 3 2 2 4 7 6 6 7 7 6 6 6 6 6 8 6 5 4 4 4 4 4 4 4 5 4 2 2 3 3 4 4 3 3 3 2 2 2 2
13 12 11 9 8 8 8 7 7 6 3 1 1 3 5 6 5 4 4 4 5 5 5 5 6 5 4 3 2 3 3 3 4 4 4 3 3 2 2 2 2 2 2 2 2 1 1 1 2
11 10 10 11 11 9 9 9 8 7 5 4 4 4 5 5 5 4 4 4 5 5 5 5 7 6 5 3 1 2 3 3 3 3 4 3 3 2 2 3 2 2 2 2 2 2 1 1 1
11 12 12 13 13 11 9 10 10 9 6 6 5 5 5 5 5 5 5 4 5 5 5 5 7 6 5 4 3 2 2 3 3 3 4 4 3 3 2 2 2 2 2 3 2 2 1 1 1
13 13 13 15 14 11 11 11 7 8 8 7 6 6 5 5 6 6 5 4 5 5 5 4 5 6 5 3 2 2 2 3 3 3 3 4 4 4 2 3 3 2 2 2 2 2 1 1 1
13 13 14 14 11 10 11 10 6 6 7 8 7 7 7 7 6 6 6 6 5 5 5 4 5 6 5 4 3 3 2 3 3 3 3 3 4 4 3 2 3 3 2 2 2 2 1 1 1
10 12 12 11 9 10 10 8 7 7 8 7 7 7 6 6 6 6 7 7 6 6 6 5 5 5 5 4 3 2 3 3 3 3 3 4 4 4 3 3 3 2 2 2 2 2 1 1 1
14 15 14 11 9 10 10 9 7 7 8 7 7 7 7 6 6 6 7 7 7 7 6 5 5 5 4 3 4 3 3 3 3 3 4 5 4 4 3 3 3 2 2 2 3 2 2 1 1
16 16 14 12 10 9 10 9 7 8 9 7 6 7 7 7 7 7 6 6 7 7 7 6 5 5 4 3 3 3 3 3 3 3 4 5 4 4 4 4 3 2 2 2 2 1 1 1 2
15 14 12 13 13 12 12 12 9 8 8 7 7 7 8 8 8 8 7 6 7 7 7 6 5 5 4 4 3 3 3 3 4 4 4 4 5 4 3 4 4 3 3 2 2 2 2 1 2
13 12 12 14 14 11 10 11 8 6 6 6 7 7 7 7 8 8 8 7 7 7 7 7 6 5 4 4 4 5 4 4 4 4 4 4 5 5 4 4 4 3 2 3 3 2 1 2 2
13 12 13 15 15 14 12 12 6 5 6 8 8 7 7 7 8 8 9 8 7 7 7 7 6 5 5 4 4 5 4 4 3 4 5 5 4 4 4 4 4 3 2 2 2 2 2 1 2
12 12 14 14 12 13 12 11 7 4 5 7 8 7 6 7 7 8 8 8 8 7 7 7 6 5 5 5 5 5 5 5 5 5 6 4 3 3 4 5 4 3 2 2 2 2 2 1 1
10 9 8 9 9 9 8 8 5 2 3 3 5 5 5 5 5 6 6 6 7 7 6 5 6 5 4 4 4 4 4 4 5 6 5 5 4 3 4 4 4 3 3 3 2 2 2 2 2
10 11 9 9 9 8 8 6 3 4 3 5 4 5 5 4 5 6 6 6 6 6 6 5 6 5 5 4 3 3 4 3 3 4 4 4 3 4 5 4 4 4 4 4 3 3 3 3 3
11 10 11 11 12 11 7 4 2 3 4 5 5 5 5 5 5 5 6 5 5 6 6 5 6 5 4 4 4 3 4 3 3 4 3 3 3 4 6 5 4 4 4 4 3 3 3 3 4
12 8 6 8 9 10 8 4 1 0 1 3 4 4 4 5 6 6 6 5 5 5 6 5 5 5 4 3 3 3 3 3 2 3 3 3 3 3 5 5 4 4 4 4 4 3 4 4 3
11 11 8 7 8 8 8 3 2 3 2 1 2 3 5 5 4 5 6 5 5 5 5 5 5 5 4 4 3 4 3 3 3 2 3 2 3 4 5 5 6 5 5 5 4 4 4 4 4
12 12 10 7 8 8 8 2 4 5 3 2 1 3 4 5 5 5 5 5 5 5 4 4 4 4 4 4 4 4 4 4 3 3 3 3 3 3 4 4 5 5 5 4 4 5 4 4 4
Wind_Direction
255 251 242 251 246 246 270 339 30 55 61 58 45 52 54 48 53 89 109 100 106 115 124 127 125 124 122 120 118 117 116 115 114 112 111 111 110 109 109 108 106 104 104 104 102 98 97 96 94
268 263 251 246 254 260 307 20 53 61 66 79 73 63 72 67 79 102 105 107 113 119 127 127 129 128 127 125 122 121 122 120 120 118 117 116 116 114 113 113 112 110 108 108 106 103 100 98 95
268 263 265 246 247 254 125 79 75 84 81 74 78 62 66 75 88 105 115 120 115 118 122 124 133 132 131 129 128 127 128 126 127 126 124 122 121 119 117 117 116 115 113 111 109 108 107 104 102
265 252 240 252 250 224 191 114 100 100 97 89 88 87 78 73 91 110 121 123 121 129 128 133 139 136 135 134 134 133 130 129 130 130 129 128 125 123 124 122 120 118 117 115 113 111 111 111 108
251 261 257 261 252 210 94 82 99 94 94 85 87 95 92 86 99 116 128 129 131 130 126 137 140 139 139 140 139 138 135 133 133 133 132 130 131 131 131 129 127 125 123 120 119 118 118 120 117
256 255 260 264 254 174 138 128 203 71 90 95 105 106 108 117 122 132 134 138 135 129 126 134 143 144 145 145 144 142 140 138 137 138 138 138 139 138 137 138 136 133 130 126 125 126 127 130 133
255 270 272 273 276 233 138 92 9 23 40 54 79 97 118 126 126 136 138 143 134 129 129 140 146 149 150 148 149 147 146 145 146 146 146 148 149 148 146 143 140 141 138 134 133 134 137 141 147
255 274 279 276 276 253 120 115 72 17 4 60 67 97 126 125 134 139 143 143 133 131 134 144 149 151 155 155 157 156 155 156 157 158 159 159 160 161 159 152 146 147 146 144 144 144 147 148 156
256 259 267 275 285 288 120 190 205 128 253 7 74 109 129 134 143 146 149 148 139 136 136 146 148 152 158 158 157 162 163 166 167 170 173 175 177 168 166 155 150 156 159 158 158 159 159 160 175
241 251 260 279 303 315 332 312 296 252 272 267 107 111 127 145 152 157 163 161 150 147 147 150 150 153 159 154 150 167 171 171 183 173 174 188 182 161 147 146 156 164 167 169 173 176 178 190 189
242 252 272 289 309 319 316 306 297 276 262 276 123 128 137 150 158 165 169 167 157 150 154 146 142 150 154 143 154 165 163 166 184 175 169 173 165 152 142 148 154 166 173 180 177 189 197 195 180
248 257 268 277 294 301 292 288 285 289 297 2 73 124 140 161 172 174 169 169 157 152 156 143 141 143 139 138 153 151 159 164 164 159 168 163 164 157 150 155 161 170 173 172 172 198 175 173 178
252 255 262 268 267 267 271 269 277 278 276 240 156 160 158 168 170 165 149 143 139 143 144 134 129 126 120 122 163 155 152 152 144 153 162 158 151 156 148 142 148 157 144 148 151 137 125 154 167
267 274 271 270 267 256 259 259 256 252 236 214 192 184 175 177 166 156 148 143 137 139 137 134 136 127 129 138 150 126 138 132 136 138 150 156 145 143 147 141 141 131 131 133 136 123 133 131 112
271 274 270 258 251 245 250 254 243 232 222 213 198 191 179 179 164 164 158 147 139 133 130 133 135 131 138 147 159 142 145 143 140 133 141 147 143 140 151 145 145 138 127 124 126 123 141 156 138
262 256 259 255 239 232 236 251 236 211 205 205 205 199 184 173 179 168 154 141 135 136 131 140 146 139 142 142 153 146 152 142 139 135 139 147 141 143 153 152 143 145 146 148 147 167 165 130 112
249 243 247 253 236 231 235 253 232 220 217 208 205 202 191 175 182 160 152 145 136 134 134 138 131 140 144 147 152 150 151 144 137 135 142 152 151 156 159 142 135 159 150 152 174 142 130 138 160
258 260 259 257 251 244 240 248 231 229 232 218 204 192 185 179 171 156 151 144 133 130 130 139 135 135 142 153 163 160 149 144 137 138 141 146 152 154 156 140 142 160 149 142 115 119 129 170 204
268 275 279 278 262 258 254 252 240 233 230 224 202 185 182 174 158 144 141 140 136 132 137 143 147 146 150 159 170 168 167 162 151 149 151 151 156 153 156 143 151 167 155 149 146 149 168 184 165
264 271 278 285 283 275 273 262 249 234 233 220 206 192 183 173 153 140 138 142 145 147 151 155 155 153 163 164 171 167 166 165 154 148 148 152 154 161 167 157 159 157 154 158 160 149 177 195 186
262 269 278 285 283 273 270 264 243 240 226 209 205 195 183 174 162 154 157 160 157 157 161 165 160 158 167 159 161 158 159 160 152 151 156 161 166 169 164 159 160 167 168 158 176 174 196 216 204
267 274 279 279 279 276 269 271 245 226 233 214 200 191 189 178 167 164 167 170 168 162 163 157 156 159 164 162 167 173 176 173 162 160 158 165 167 168 167 159 163 171 169 162 186 175 213 217 236
273 283 279 277 276 276 270 269 261 216 213 215 204 189 184 179 172 169 174 175 169 162 160 156 157 167 171 181 180 183 177 172 159 154 152 163 167 172 167 156 152 159 170 160 170 156 200 217 245
268 275 276 270 265 262 264 265 265 238 226 209 185 184 176 176 171 167 174 171 165 164 160 156 158 169 174 182 185 192 187 179 166 163 160 166 165 172 170 162 156 164 172 170 173 173 195 219 252
256 262 268 264 250 254 257 253 253 231 231 161 147 163 166 168 165 166 171 163 155 152 147 154 158 165 174 179 184 190 192 184 175 169 170 174 170 173 173 168 164 173 179 184 176 191 210 213 229
249 253 260 275 281 288 281 250 223 150 131 108 125 139 147 155 164 163 160 152 153 151 144 151 155 167 173 175 180 175 177 183 181 177 178 179 174 171 161 165 171 179 181 192 184 201 212 211 223
254 254 269 277 280 278 268 277 48 106 108 115 132 142 146 144 138 144 140 136 140 147 149 158 154 157 166 169 170 174 171 180 179 171 186 176 169 163 159 173 180 186 192 197 192 207 222 207 216
252 260 269 270 283 286 282 264 263 16 136 145 138 137 139 141 140 136 129 132 137 144 147 154 151 151 152 159 161 149 142 167 174 166 170 170 174 160 159 173 187 196 203 205 210 210 220 221 223
250 248 251 263 271 281 285 289 73 87 64 29 117 127 124 119 127 131 129 134 139 144 150 152 148 141 143 149 140 130 140 150 154 152 164 175 173 171 171 182 191 199 205 206 210 223 226 226 226
257 259 255 255 265 271 275 276 51 55 55 33 75 114 116 120 117 120 122 131 145 148 149 141 139 144 145 141 138 138 140 143 149 160 165 175 183 186 187 191 191 202 207 203 207 222 227 229 230